Regional Weather Roundup
Issued by NWS

Home | Current Version | Previous Version | Text Only | Print | Product List | Glossary On
Versions: 1 2 3 4 5 6 7 8 9 10 11 12 13 14 15 16 17 18 19 20 21 22 23 24 25 26 27 28 29 30 31 32 33 34 35 36 37 38 39 40 41 42 43 44 45 46 47 48 49 50
547
ASUS43 KMPX 130510
RWRMN
WEATHER ROUNDUP FOR MINNESOTA
NATIONAL WEATHER SERVICE TWIN CITIES/CHANHASSEN MN
1100 PM CST FRI FEB 12 2016


NOTE: "FAIR" INDICATES FEW OR NO CLOUDS BELOW 12,000 FEET WITH NO
SIGNIFICANT WEATHER AND/OR OBSTRUCTIONS TO VISIBILITY. N/A MEANS
CURRENT SKY AND/OR WEATHER CONDITIONS ARE NOT AVAILABLE.

MNZ060>063-068>070-130600-
   Twin Cities Metro

CITY           SKY/WX    TMP DP  RH WIND       PRES   REMARKS
TWIN CITIES    CLEAR      1 -11  57 NW10      30.60R WCI -15
ST PAUL        CLOUDY     2 -10  57 NW12      30.62R WCI -15
CRYSTAL        CLOUDY     1 -11  57 NW12      30.60R WCI -16
BLAINE         CLOUDY     1  -9  60 NW9       30.59R WCI -14
LAKEVILLE      CLOUDY     0  -9  65 NW8       30.58S WCI -15
EDEN PRAIRIE   CLOUDY     1 -11  57 NW8       30.59R WCI -13
SOUTH ST PAUL  CLOUDY     3 -11  51 NW12      30.60R WCI -13
LAKE ELMO      FAIR       1 -11  55 NW3       30.59R
$$
MNZ001>005-007-008-013>017-022>024-027-028-130600-
   Northwest Minnesota

CITY           SKY/WX    TMP DP  RH WIND       PRES   REMARKS
BEMIDJI        CLOUDY   -14 -19  78 W5        30.57S WCI -27
HALLOCK        CLOUDY   -11 -17  77 CALM      30.65F
ROSEAU         PTCLDY   -13 -18  77 W8        30.62R WCI -30
WARROAD        PTCLDY   -17 -22  76 W6        30.59S WCI -31
THIEF RVR FALL CLOUDY    -9 -26  45 N7        30.62S WCI -24
CROOKSTON      CLOUDY    -9 -15  77 CALM      30.67R
FOSSTON          N/A    -20 -27  69 CALM      30.61F
DETROIT LAKES  CLOUDY    -9 -15  77 NW6       30.60S WCI -23
MOORHEAD       CLOUDY    -8 -11  84 NW3       30.68R
PARK RAPIDS    CLOUDY   -13 -19  75 NW3       30.56S
MAHNOMEN       FAIR     -15 -20  80 CALM      30.60F
$$
MNZ006-009>011-018-025>026-130600-
   North Central Minnesota

CITY           SKY/WX    TMP DP  RH WIND       PRES   REMARKS
BAUDETTE       CLOUDY   -16 -25  63 W6        30.56R WCI -31
FLAG ISLAND    CLOUDY   -15 -22  70 NW10      30.57S WCI -35
INTL FALLS     CLOUDY   -14 -21  71 NW8       30.53S WCI -31
WASKISH        CLOUDY   -15 -20  76 SW6       30.58R WCI -29
LONGVILLE      CLOUDY   -11 -17  77 NW7       30.57R WCI -26
GRAND RAPIDS   CLOUDY    -9 -18  64 NW12      30.52R WCI -29
CRANE LAKE     CLOUDY   -13 -20  70 CALM      30.55R
ORR            CLOUDY   -13 -22  64 NW5       30.48R WCI -25
COOK           CLOUDY   -11 -18  70 NW5       30.50S WCI -23
WALKER         FAIR     -13 -18  77 W8        30.57S WCI -30
$$
MNZ012-019>021-037-130600-
   Northeast Minnesota

CITY           SKY/WX    TMP DP  RH WIND       PRES   REMARKS
DULUTH         CLEAR     -8 -19  58 NW10      30.48R WCI -26
ELY            CLOUDY   -13 -18  77 NW6       30.47R WCI -27
HIBBING        CLOUDY   -13 -21  67 NW10      30.50R WCI -32
EVELETH        CLOUDY    -8 -18  59 NW9       30.49S WCI -25
DULUTH HARBOR  PTCLDY    -2 -17  50 NW12G18   30.59R WCI -20
TWO HARBORS    CLEAR     -6 -17  59 NW7       30.47R WCI -20
SILVER BAY     CLEAR     -8 -18  59 NW5       30.46S WCI -19
GRAND MARAIS     N/A     -5 -17  56 CALM      30.49R
G MARAIS ARPRT CLEAR    -13 -20  70 NW8G16    30.33R WCI -30
$$
MNZ029>031-032-039>041-046>048-054>057-064-130600-
   West Central Minnesota

CITY           SKY/WX    TMP DP  RH WIND       PRES   REMARKS
FERGUS FALLS   CLOUDY    -8 -15  71 NW6       30.69R WCI -21
WHEATON        CLOUDY    -8 -11  84 W5        30.68F WCI -19
MORRIS         CLOUDY    -6  -9  84 NW8       30.63R WCI -21
ALEXANDRIA     CLOUDY    -8 -15  71 NW9       30.58S WCI -25
ELBOW LAKE     FAIR      -6 -11  79 W7        30.64R WCI -20
WADENA         CLOUDY   -11 -17  77 NW5       30.58S WCI -23
GLENWOOD       CLOUDY    -8 -13  77 N12       30.59S WCI -27
APPLETON       CLOUDY    -4  -9  77 W7        30.67S WCI -18
BENSON         CLOUDY    -6 -11  77 CALM      30.64S
ORTONVILLE     CLOUDY    -6 -11  77 NW5       30.65F WCI -17
MADISON        CLOUDY    -2  -9  71 NW7       30.67S WCI -16
WILLMAR        FAIR       0  -8  71 NW10      30.63R WCI -17
$$
MNZ033>034-036-042>043-049>051-058-059-130600-
   Central Minnesota

CITY           SKY/WX    TMP DP  RH WIND       PRES   REMARKS
ST CLOUD       CLOUDY    -5 -14  65 NW9       30.60S WCI -22
SAUK CENTRE    FAIR      -7 -14  71 NW10      30.60R WCI -25
PAYNESVILLE    CLOUDY    -4 -12  67 NW9       30.61R WCI -20
AITKIN         CLOUDY    -6 -18  54 W3        30.55R
PINE RIVER     CLOUDY    -9 -17  70 W5        30.60R WCI -21
BRAINERD       CLOUDY    -7 -16  65 NW8       30.58R WCI -23
STAPLES        CLOUDY   -11 -18  70 NW5       30.59R WCI -23
LONG PRAIRIE   FAIR      -8 -15  71 NW7       30.59R WCI -22
LITTLE FALLS   CLOUDY    -6 -15  65 NW6       30.61S WCI -18
LITCHFIELD     CLOUDY    -2 -11  65 NW8       30.61R WCI -17
BUFFALO        CLOUDY    -2 -12  62 NW7       30.62R WCI -16
MAPLE LAKE     CLOUDY    -2 -10  68 NW7       30.61R WCI -15
$$
MNZ037-044-045-052-053-130600-
   East Central Minnesota

CITY           SKY/WX    TMP DP  RH WIND       PRES   REMARKS
PRINCETON      CLOUDY    -2 -11  65 W10       30.59R WCI -19
MORA           CLOUDY    -2 -15  55 NW8       30.60R WCI -17
CAMBRIDGE      CLOUDY     0 -13  55 NW7       30.58R WCI -13
RUSH CITY      MOCLDY    -2 -14  55 NW9       30.59R WCI -17
MOOSE LAKE     CLOUDY    -6 -17  59 NW6       30.54R WCI -18
HINCKLEY       FAIR      -2 -13  60 NW9       30.57R WCI -18
CLOQUET        CLOUDY    -8 -18  59 NW6       30.51R WCI -21
MCGREGOR       CLOUDY    -6 -15  65 NW7       30.55S WCI -20
$$
MNZ071>073-080-081-089-090-097-098-130600-
   Southwest Minnesota

CITY           SKY/WX    TMP DP  RH WIND       PRES   REMARKS
MONTEVIDEO     CLOUDY    -6  -9  84 NW6       30.67R WCI -18
GRANITE FALLS  CLOUDY    -1  -6  78 W10       30.67R WCI -17
CANBY          CLOUDY    -1  -7  77 W6        30.66S WCI -13
MARSHALL       CLOUDY    -3  -9  75 NW12      30.64S WCI -21
REDWOOD FALLS  CLOUDY    -1  -7  75 NW10      30.64R WCI -17
OLIVIA         CLOUDY     1  -6  71 NW10      30.63R WCI -14
PIPESTONE      CLOUDY    -2 -13  60 N5        30.57S WCI -12
WINDOM         CLOUDY    -2  -8  78 NW9       30.59R WCI -18
WORTHINGTON    CLOUDY    -4 -11  71 N8        30.59S WCI -19
JACKSON        CLOUDY     0  -8  71 NW9       30.59R WCI -16
TRACY          CLOUDY    -2  -7  78 NW10      30.62R WCI -19
SLAYTON        CLOUDY    -4  -9  80 NW8       30.59R WCI -19
$$
MNZ065>067-074>077-082>085-091>093-130600-
   South Central Minnesota

CITY           SKY/WX    TMP DP  RH WIND       PRES   REMARKS
MANKATO        CLOUDY     0  -8  71 NW8       30.59S WCI -15
NEW ULM        CLOUDY     0  -9  65 NW13      30.61S WCI -18
ST JAMES       CLOUDY     0  -6  78 NW9       30.63R WCI -16
FAIRMONT       CLOUDY     0  -8  71 NW15      30.58R WCI -20
GLENCOE        CLOUDY     1  -8  66 NW9       30.60S WCI -14
FARIBAULT      CLOUDY     0  -9  65 NW7       30.58R WCI -13
OWATONNA       CLOUDY    -2 -11  65 NW7       30.57S WCI -16
WASECA         CLOUDY     0  -8  71 NW6       30.59S WCI -12
ALBERT LEA     CLOUDY     1  -8  66 NW6       30.55F WCI -10
$$
MNZ078>079-086>088-094>096-130600-
   Southeast Minnesota

CITY           SKY/WX    TMP DP  RH WIND       PRES   REMARKS
ROCHESTER      CLOUDY    -2 -12  62 NW14      30.52R WCI -21
RED WING       CLOUDY    -2 -15  55 NW2       30.58R
STANTON        CLOUDY    -3 -12  64 NW6       30.58R WCI -15
DODGE CENTER   CLOUDY     0  -9  65 NW12      30.52S WCI -18
WINONA         CLOUDY     3  -9  55 NW10      30.59R WCI -12
AUSTIN         CLOUDY     0  -8  71 NW9       30.54S WCI -16
PRESTON        CLOUDY    -3 -13  64 NW12      30.53R WCI -21
$$
ABBREVIATIONS USED IN REMARKS
   TC - TEMPERATURES IN CELSIUS
  WCI - WIND CHILL INDEX
   HX - HEAT INDEX
  VSB - VISIBILITY
$$




USA.gov is the U.S. government's official web portal to all federal, state and local government web resources and services.